[[{"header":{"parameterUnit":"m.s-1","parameterCategory":1,"la1":30.2991,"la2":30.254,"lo1":-89.0895,"lo2":-89.0444,"dy":0.0017,"dx":0.0017,"nx":28,"ny":28,"refTime":"2023-08-24T09:00:00:Z","depth":0,"parameterNumber":2,"parameterNumberName":"U-component_of_WINDS"},"data":[0,0,0,0,0,0,0,0,0,0,0,0,0,0,0,0,0,0,0,0,0,0,0,0,0,0,0,0,0,0,0,0,0,0,0,0,0,0,0,0,0,0,0,0,0,0,0,0,0,0,0,0,0,0,0,0,0,0,4.1897,4.1898,0,4.2,4.2001,4.2002,4.1947,4.1944,4.1941,4.1939,4.2044,4.2049,4.2054,0,0,0,0,0,0,0,0,0,0,0,0,0,4.1652,4.1657,4.1897,4.1898,4.1899,4.2,4.2001,4.2003,4.1947,4.1944,4.1941,4.1937,4.2042,4.2048,4.2055,0,0,0,0,0,0,0,0,0,0,0,0,0,4.1757,4.1659,4.1896,4.1884,4.1884,4.2,4.2001,4.2003,4.1948,4.1944,4.194,4.1936,4.204,4.2048,4.2056,4.219,0,0,4.208,4.2084,0,0,0,0,0,0,0,0,4.1751,4.1766,4.1884,4.1885,4.1885,4.1956,4.1953,4.2066,4.1949,4.1924,4.1939,4.1934,4.2018,4.2028,4.2056,4.2194,4.2199,4.2081,4.2086,4.209,4.2092,0,0,0,0,0,0,0,4.1744,4.1762,4.1937,4.1886,4.1887,4.1873,4.1884,4.1974,4.1993,4.1926,4.1922,4.1935,4.2017,4.2048,4.2058,4.2201,4.2081,4.2088,4.2093,4.2096,4.2457,4.2461,0,0,0,0,0,0,4.1738,4.1756,4.1934,4.1941,4.1807,4.1881,4.1893,4.1938,4.1992,4.1996,4.1938,4.1932,4.2037,4.2049,4.2062,4.2224,4.2089,4.2097,4.2102,4.2452,4.2458,4.2463,0,0,0,0,0,0,4.1733,4.1754,4.193,4.1847,4.1869,4.189,4.1941,4.1942,4.1973,4.2002,4.2004,4.1967,4.2034,4.205,4.2159,4.2227,4.2101,4.2108,4.2446,4.2454,4.246,4.2548,0,0,0,0,0,0,4.1726,4.1753,4.1803,4.1849,4.1873,4.2025,4.1945,4.1947,4.1987,4.198,4.2029,4.2033,4.2032,4.2147,4.2167,4.2235,4.2114,4.244,4.245,4.2458,4.2539,4.2557,4.2573,0,0,0,0,0,4.1717,4.1823,4.1806,4.1828,4.1937,4.2029,4.2043,4.204,4.1993,4.2044,4.2063,4.2032,4.2216,4.2159,4.2181,4.2253,4.2436,4.2447,4.2457,4.2532,4.2554,4.2572,0,0,0,0,0,0,4.1784,4.1829,4.181,4.1934,4.1979,4.202,4.2085,4.2063,4.2121,4.2112,4.2105,4.2117,4.223,4.2252,4.2187,4.2386,4.2319,4.2334,4.2368,4.2389,4.2406,4.2398,4.2121,0,0,0,0,0,4.1814,4.1885,4.192,4.2026,4.2049,4.2063,4.2103,4.2097,4.2143,4.2161,4.2187,4.2233,4.2301,4.2346,4.241,4.2542,4.2553,4.2603,4.2619,4.2633,4.2647,4.272,4.2743,4.2498,4.2498,4.2497,0,0,4.1874,4.1908,4.1953,4.204,4.2074,4.2148,4.2079,4.216,4.2216,4.2173,4.2278,4.2299,4.2349,4.2471,4.2526,4.2493,4.2717,4.2647,4.2657,4.2664,4.2734,4.2757,4.2778,4.2505,4.2504,4.2502,0,0,4.2024,4.2056,4.2148,4.2184,4.2236,4.2246,4.2268,4.2313,4.2326,4.2431,4.2402,4.2467,4.2585,4.2623,4.2657,4.2824,4.2798,4.2845,4.2933,4.3004,4.3024,4.3041,4.3102,4.3124,4.2858,4.2859,4.2859,0,4.2093,4.2204,4.2199,4.2283,4.2323,4.2289,4.2384,4.2418,4.2489,4.2517,4.2479,4.2628,4.2659,4.279,4.2831,4.2859,4.2886,4.2839,4.3021,4.3039,4.3055,4.3113,4.3136,4.2864,4.2863,4.2863,4.2862,0,4.2287,4.2365,4.2434,4.2504,4.2552,4.2641,4.265,4.2698,4.2689,4.2702,4.2811,4.2848,4.292,4.295,4.2941,4.3081,4.3059,4.3022,4.2954,4.3084,4.3138,4.316,4.2872,4.287,4.2868,4.2867,0,0,4.2481,4.2549,4.2574,4.2607,4.2663,4.2723,4.2811,4.2882,4.2925,4.2976,4.305,4.3152,4.3118,4.3157,4.3152,4.3215,4.3347,4.317,4.3171,4.3203,4.3506,4.3535,4.3561,4.333,4.3335,4.3338,4.3503,0,4.2636,4.279,4.2789,4.2932,4.3005,4.2974,4.3051,4.3095,4.311,4.3174,4.3191,4.3264,4.3213,4.3237,4.3298,4.3318,4.3408,4.3306,4.3401,4.3404,4.339,4.3589,4.3619,4.3773,4.3524,4.3527,4.353,0,4.2836,4.2895,4.3045,4.3093,4.3123,4.3193,4.3259,4.332,4.337,4.3376,4.3422,4.3408,4.3498,4.3428,4.3554,4.3485,4.3523,4.3539,4.3545,4.3555,4.3475,4.3605,4.3821,4.3845,4.3563,4.356,4.3558,0,4.2965,4.3081,4.3186,4.3215,4.3272,4.3322,4.3349,4.3393,4.3437,4.3495,4.3524,4.3592,4.3629,4.3683,4.3688,4.3635,4.3815,4.3744,4.3824,4.3825,4.3864,4.3862,4.4091,4.3887,4.3887,4.3887,4.3886,0,4.3138,4.3232,4.3245,4.331,4.3415,4.3413,4.3517,4.3539,4.358,4.3649,4.3627,4.3692,4.3694,4.3762,4.3767,4.3871,4.3888,4.3897,4.3897,4.39,4.3899,4.3925,4.3915,4.3893,4.3891,4.389,4.3889,0,4.3299,4.3312,4.3425,4.3471,4.3485,4.3561,4.36,4.3663,4.3676,4.3765,4.3786,4.3808,4.3886,4.3897,4.3988,4.3991,4.4118,4.4106,4.4102,4.41,4.418,4.4173,4.4435,4.447,4.4243,4.4245,4.4247,0,4.3409,4.3481,4.3535,4.3581,4.361,4.3683,4.3728,4.3729,4.3777,4.384,4.3896,4.3972,4.4033,4.4161,4.4185,4.4256,4.4247,4.4334,4.4257,4.4258,4.425,4.4246,4.4254,4.4349,4.4351,4.4353,4.4355,0,4.3605,4.3608,4.3673,4.3743,4.3797,4.3851,4.3902,4.394,4.3948,4.4004,4.4084,4.4132,4.4227,4.4304,4.4374,4.4401,4.4381,4.4379,4.4401,4.4405,4.44,4.4406,4.4143,4.4373,4.4371,4.437,4.4369,4.4368,4.3745,4.3808,4.3857,4.3931,4.397,4.4019,4.4081,4.4103,4.417,4.4247,4.4244,4.4334,4.4383,4.4475,4.4508,4.4578,4.4549,4.4582,4.459,4.4598,4.4607,4.4388,4.4591,4.459,4.459,4.4589,4.4589,0,4.394,4.397,4.4039,4.4112,4.4171,4.4146,4.4202,4.4253,4.4332,4.438,4.4441,4.4535,4.461,4.4641,4.4715,4.4766,4.4758,4.4785,4.4782,4.4789,4.4628,4.4601,4.479,4.479,4.479,4.479,4.479,4.479,4.4049,4.4155,4.4164,4.429,4.432,4.4407,4.4442,4.4487,4.4525,4.4631,4.4693,4.4713,4.4755,4.4832,4.49,4.4907,4.4936,4.4968,4.4971,4.482,4.48,4.4781,4.4756,4.4974,4.4974,4.5127,4.5128,4.513]},{"header":{"parameterUnit":"m.s-1","parameterCategory":1,"la1":30.2991,"la2":30.254,"lo1":-89.0895,"lo2":-89.0444,"dy":0.0017,"dx":0.0017,"nx":28,"ny":28,"refTime":"2023-08-24T09:00:00:Z","depth":0,"parameterNumber":3,"parameterNumberName":"V-component_of_WINDS"},"data":[0,0,0,0,0,0,0,0,0,0,0,0,0,0,0,0,0,0,0,0,0,0,0,0,0,0,0,0,0,0,0,0,0,0,0,0,0,0,0,0,0,0,0,0,0,0,0,0,0,0,0,0,0,0,0,0,0,0,-1.964,-1.9641,0,-1.9658,-1.9659,-1.9659,-1.9637,-1.9636,-1.9635,-1.9634,-1.9651,-1.9653,-1.9654,0,0,0,0,0,0,0,0,0,0,0,0,0,-1.9585,-1.9587,-1.964,-1.9641,-1.9641,-1.9658,-1.9659,-1.9659,-1.9637,-1.9636,-1.9635,-1.9634,-1.9651,-1.9652,-1.9654,0,0,0,0,0,0,0,0,0,0,0,0,0,-1.9607,-1.9587,-1.964,-1.9632,-1.9631,-1.9658,-1.9659,-1.9659,-1.9637,-1.9636,-1.9635,-1.9633,-1.965,-1.9652,-1.9654,-1.969,0,0,-1.966,-1.966,0,0,0,0,0,0,0,0,-1.9606,-1.9609,-1.9633,-1.9633,-1.9632,-1.9644,-1.9646,-1.9669,-1.9637,-1.9635,-1.9634,-1.9633,-1.965,-1.9652,-1.9658,-1.969,-1.9691,-1.966,-1.9661,-1.9662,-1.9662,0,0,0,0,0,0,0,-1.9604,-1.9608,-1.9647,-1.9633,-1.9633,-1.9627,-1.9629,-1.965,-1.9649,-1.9635,-1.9633,-1.9636,-1.9649,-1.9656,-1.9658,-1.9691,-1.966,-1.9661,-1.9662,-1.9663,-1.9754,-1.9756,0,0,0,0,0,0,-1.9604,-1.9607,-1.9647,-1.9648,-1.9616,-1.9629,-1.9631,-1.9641,-1.9649,-1.9649,-1.9637,-1.9635,-1.9653,-1.9656,-1.9658,-1.97,-1.9662,-1.9663,-1.9664,-1.9753,-1.9755,-1.9756,0,0,0,0,0,0,-1.9603,-1.9608,-1.9646,-1.9627,-1.9632,-1.9631,-1.9643,-1.9642,-1.9649,-1.965,-1.965,-1.9644,-1.9653,-1.9656,-1.9682,-1.9701,-1.9664,-1.9666,-1.9752,-1.9754,-1.9755,-1.9785,0,0,0,0,0,0,-1.9601,-1.9607,-1.9621,-1.9628,-1.9633,-1.967,-1.9644,-1.9644,-1.9652,-1.965,-1.9657,-1.9657,-1.9652,-1.968,-1.9684,-1.9702,-1.9667,-1.975,-1.9752,-1.9755,-1.9782,-1.9788,-1.9792,0,0,0,0,0,-1.96,-1.9628,-1.9622,-1.9627,-1.965,-1.9671,-1.9674,-1.9668,-1.9654,-1.9668,-1.9668,-1.9656,-1.9698,-1.9682,-1.9687,-1.9707,-1.9749,-1.9752,-1.9755,-1.978,-1.9786,-1.9792,0,0,0,0,0,0,-1.9623,-1.9629,-1.9622,-1.9654,-1.9662,-1.9667,-1.9684,-1.9676,-1.9688,-1.9685,-1.9677,-1.9679,-1.9707,-1.9709,-1.9692,-1.9742,-1.9721,-1.9725,-1.9739,-1.9745,-1.975,-1.9748,-1.9669,0,0,0,0,0,-1.9633,-1.965,-1.9654,-1.9681,-1.9686,-1.9685,-1.9694,-1.9689,-1.9697,-1.97,-1.9703,-1.9711,-1.9726,-1.9735,-1.9749,-1.9783,-1.9784,-1.9799,-1.9804,-1.9808,-1.9811,-1.9829,-1.9835,-1.9766,-1.9766,-1.9766,0,0,-1.9651,-1.9657,-1.9668,-1.9686,-1.9692,-1.971,-1.9688,-1.9707,-1.972,-1.9703,-1.9728,-1.973,-1.9739,-1.9769,-1.9782,-1.9772,-1.9831,-1.9811,-1.9815,-1.9816,-1.9833,-1.9839,-1.9845,-1.9768,-1.9768,-1.9767,0,0,-1.9694,-1.97,-1.9724,-1.9731,-1.974,-1.9739,-1.9745,-1.9752,-1.9753,-1.9778,-1.9765,-1.9781,-1.9806,-1.9813,-1.982,-1.9866,-1.9855,-1.9871,-1.9897,-1.9914,-1.992,-1.9924,-1.994,-1.9946,-1.9874,-1.9874,-1.9874,0,-1.9716,-1.9743,-1.9737,-1.9758,-1.9766,-1.9752,-1.9776,-1.9783,-1.9796,-1.9802,-1.9791,-1.9823,-1.9828,-1.9859,-1.9871,-1.9877,-1.9883,-1.9869,-1.9919,-1.9924,-1.9928,-1.9944,-1.995,-1.9876,-1.9876,-1.9876,-1.9876,0,-1.9769,-1.9787,-1.9805,-1.9819,-1.983,-1.9852,-1.9849,-1.9861,-1.9855,-1.9856,-1.9881,-1.9887,-1.9901,-1.9909,-1.9903,-1.9939,-1.9933,-1.9921,-1.99,-1.9937,-1.9951,-1.9957,-1.9879,-1.9878,-1.9878,-1.9877,0,0,-1.9826,-1.9838,-1.9844,-1.985,-1.986,-1.9874,-1.9896,-1.9911,-1.992,-1.993,-1.9948,-1.9971,-1.996,-1.9967,-1.9963,-1.9978,-2.0014,-1.9964,-1.9964,-1.9973,-2.0054,-2.0063,-2.007,-2.0008,-2.0009,-2.001,-2.0053,0,-1.9869,-1.9907,-1.9903,-1.9938,-1.9955,-1.9943,-1.9962,-1.997,-1.9971,-1.9985,-1.9986,-2.0002,-1.9986,-1.9991,-2.0005,-2.0007,-2.003,-2.0004,-2.0023,-2.0024,-2.0021,-2.0077,-2.0086,-2.0127,-2.0059,-2.006,-2.006,0,-1.9924,-1.9936,-1.9974,-1.9981,-1.9988,-2.0005,-2.0019,-2.0033,-2.0041,-2.0041,-2.005,-2.0043,-2.0064,-2.0044,-2.0073,-2.0055,-2.0063,-2.0065,-2.0066,-2.0067,-2.0044,-2.0079,-2.014,-2.0146,-2.0069,-2.0068,-2.0068,0,-1.9961,-1.9987,-2.0013,-2.0019,-2.0029,-2.0041,-2.0045,-2.0053,-2.0062,-2.0074,-2.008,-2.0094,-2.0102,-2.0113,-2.0109,-2.0095,-2.0139,-2.0118,-2.0139,-2.0139,-2.0148,-2.0147,-2.0211,-2.0155,-2.0154,-2.0154,-2.0154,0,-2.0009,-2.0032,-2.003,-2.0046,-2.0072,-2.0067,-2.0093,-2.0096,-2.0103,-2.0119,-2.0109,-2.0124,-2.0119,-2.0134,-2.0132,-2.0156,-2.0159,-2.0159,-2.0158,-2.016,-2.016,-2.0164,-2.0161,-2.0156,-2.0156,-2.0155,-2.0155,0,-2.0055,-2.0055,-2.0082,-2.0089,-2.0091,-2.011,-2.0116,-2.0131,-2.0131,-2.0152,-2.0156,-2.0157,-2.0174,-2.0172,-2.0191,-2.0189,-2.0219,-2.0215,-2.0216,-2.0215,-2.0236,-2.0234,-2.0304,-2.0312,-2.0251,-2.0252,-2.0252,0,-2.0085,-2.0102,-2.0112,-2.0122,-2.0128,-2.0144,-2.0154,-2.015,-2.0161,-2.0172,-2.0186,-2.0202,-2.0215,-2.0242,-2.0244,-2.0259,-2.0255,-2.0278,-2.0257,-2.0258,-2.0254,-2.0253,-2.0255,-2.0282,-2.0283,-2.0283,-2.0284,0,-2.0138,-2.0137,-2.0152,-2.0167,-2.0179,-2.019,-2.02,-2.0209,-2.0206,-2.0219,-2.0236,-2.0246,-2.0266,-2.0282,-2.0296,-2.03,-2.0291,-2.0291,-2.0296,-2.0298,-2.0297,-2.0297,-2.0227,-2.0289,-2.0288,-2.0288,-2.0288,-2.0288,-2.0177,-2.0192,-2.0201,-2.0218,-2.0225,-2.0235,-2.0249,-2.0252,-2.0267,-2.0283,-2.028,-2.0299,-2.0308,-2.0326,-2.0332,-2.0347,-2.0338,-2.0346,-2.0348,-2.035,-2.0352,-2.0296,-2.0349,-2.0349,-2.0349,-2.0349,-2.0349,0,-2.0229,-2.0234,-2.025,-2.0265,-2.0278,-2.027,-2.0281,-2.0292,-2.031,-2.0319,-2.0332,-2.0352,-2.0368,-2.0371,-2.0386,-2.0398,-2.0394,-2.0402,-2.0401,-2.0402,-2.0359,-2.0353,-2.0405,-2.0405,-2.0405,-2.0405,-2.0405,-2.0404,-2.0258,-2.0283,-2.0283,-2.0312,-2.0317,-2.0337,-2.0344,-2.0353,-2.036,-2.0384,-2.0397,-2.0399,-2.0406,-2.0422,-2.0436,-2.0437,-2.0442,-2.0451,-2.045,-2.041,-2.0405,-2.0399,-2.0393,-2.0453,-2.0453,-2.0492,-2.0492,-2.0492]}]]